Weather History for St. Cloud, MN

Change the Weather History Date:

Tuesday, February 4, 2014

  Actual Average Record
Temperature  
Mean Temperature 2 °F 14 °F  
Max Temperature 6 °F 24 °F 48 °F (1991)
Min Temperature -3 °F 3 °F -34 °F (1996)
Degree Days  
Heating Degree Days 63 51  
Month to date heating degree days 254 207  
Since 1 July heating degree days 5804 5309  
Cooling Degree Days 0 0  
Month to date cooling degree days 0 0  
Year to date cooling degree days 0 0  
Moisture  
Dew Point -9 °F    
Average Humidity 62    
Maximum Humidity 79    
Minimum Humidity 45    
Precipitation  
Precipitation 0.00 in 0.02 in 0.29 in (1955)
Month to date precipitation T 0.07  
Year to date precipitation 1.34 0.72  
Snow  
Snow 0.00 in 0.20 in 4.40 in (1980)
Month to date snowfall T 0.9  
Since 1 July snowfall 40.8 28.1  
Snow Depth 16.00 in    
Sea Level Pressure  
Sea Level Pressure 30.54 in    
Wind  
Wind Speed 9 mph (NNW)    
Max Wind Speed 17 mph    
Max Gust Speed 21 mph    
Visibility 10 miles    
Events      
T = Trace of Precipitation, MM = Missing Value Source: NWS Daily Summary

Daily Weather History Graph

Daily Weather History Graph

Search for Another Location

Airport:

Trip Planner

Search our weather history database for the weather conditions in past years. The results will help you decide how hot, cold, wet, or windy it might be!

Date:

Astronomy

Feb. 04, 2014 Rise Set
Actual Time 7:33 AM CST 5:27 PM CST
Civil Twilight 7:02 AM CST 5:58 PM CST
Nautical Twilight 6:26 AM CST 6:34 PM CST
Astronomical Twilight 5:52 AM CST 7:08 PM CST
Moon 9:53 AM CST (2/4) 11:42 PM CST (2/4)
Length of Visible Light 10h 56m
Length of Day
9h 53m
Waxing Crescent, 29% of the Moon is Illuminated
Feb 4
Waxing Crescent
Feb 6
First Quarter
Feb 14
Full
Feb 22
Last Quarter
Mar 1
New

Hourly Weather History & Observations

Time (CST) Temp. Windchill Dew Point Humidity Pressure Visibility Wind Dir Wind Speed Gust Speed Precip Events Conditions
12:53 AM 3.9 °F - -4.0 °F 70% 30.45 in 10.0 mi Calm Calm - N/A   Overcast
1:53 AM 1.0 °F - -4.0 °F 79% 30.46 in 10.0 mi Calm Calm - N/A   Mostly Cloudy
2:53 AM -0.0 °F - -6.0 °F 76% 30.48 in 10.0 mi Calm Calm - N/A   Clear
3:53 AM -0.9 °F -11.0 °F -7.1 °F 75% 30.49 in 10.0 mi NNW 4.6 mph - N/A   Partly Cloudy
4:53 AM 1.9 °F -11.8 °F -4.0 °F 76% 30.51 in 10.0 mi NNW 8.1 mph - N/A   Clear
5:14 AM 1.4 °F -12.5 °F -4.0 °F 78% 30.41 in 10.0 mi NNW 8.1 mph - N/A   Mostly Cloudy
5:42 AM -0.4 °F -14.7 °F -5.8 °F 78% 30.41 in 10.0 mi NW 8.1 mph - N/A   Scattered Clouds
5:53 AM -0.0 °F -14.2 °F -6.0 °F 76% 30.52 in 10.0 mi NW 8.1 mph - N/A   Clear
6:53 AM -0.9 °F -16.4 °F -8.0 °F 72% 30.54 in 10.0 mi NNW 9.2 mph - N/A   Clear
7:53 AM -2.9 °F -18.8 °F -9.9 °F 72% 30.56 in 10.0 mi NW 9.2 mph - N/A   Clear
8:53 AM -2.0 °F -18.7 °F -11.0 °F 66% 30.58 in 10.0 mi NNW 10.4 mph - N/A   Clear
9:53 AM -0.9 °F -19.9 °F -11.9 °F 60% 30.58 in 10.0 mi North 13.8 mph - N/A   Clear
10:53 AM 1.0 °F -18.0 °F -13.0 °F 52% 30.58 in 10.0 mi North 15.0 mph - N/A   Clear
11:53 AM 3.0 °F -11.5 °F -11.9 °F 50% 30.58 in 10.0 mi North 9.2 mph - N/A   Clear
12:53 PM 3.0 °F -12.5 °F -11.9 °F 50% 30.56 in 10.0 mi North 10.4 mph - N/A   Clear
1:53 PM 5.0 °F -10.8 °F -11.9 °F 46% 30.56 in 10.0 mi NNW 11.5 mph - N/A   Clear
2:53 PM 6.1 °F -8.7 °F -11.0 °F 45% 30.54 in 10.0 mi North 10.4 mph - N/A   Clear
3:53 PM 6.1 °F -11.6 °F -9.0 °F 50% 30.55 in 10.0 mi North 15.0 mph - N/A   Clear
4:53 PM 5.0 °F -10.8 °F -9.0 °F 52% 30.54 in 10.0 mi North 11.5 mph - N/A   Clear
5:53 PM 3.0 °F -11.5 °F -9.0 °F 57% 30.56 in 9.0 mi North 9.2 mph - N/A   Clear
6:53 PM 1.9 °F -14.7 °F -11.0 °F 55% 30.57 in 10.0 mi North 11.5 mph - N/A   Clear
7:53 PM 1.0 °F -14.0 °F -11.9 °F 55% 30.56 in 10.0 mi North 9.2 mph - N/A   Clear
8:53 PM -0.9 °F -14.1 °F -13.0 °F 57% 30.58 in 10.0 mi NNW 6.9 mph - N/A   Clear
9:53 PM -2.0 °F -16.6 °F -14.1 °F 57% 30.60 in 10.0 mi North 8.1 mph - N/A   Clear
10:53 PM -2.0 °F -17.7 °F -14.1 °F 57% 30.60 in 10.0 mi North 9.2 mph - N/A   Clear
11:53 PM -2.0 °F -18.7 °F -14.1 °F 57% 30.60 in 10.0 mi NNW 10.4 mph - N/A   Clear